Weather History for Havre, MT

Change the Weather History Date:

Monday, March 4, 2013

  Actual Average Record
Temperature  
Mean Temperature 21 °F 28 °F  
Max Temperature 26 °F 39 °F 75 °F (1987)
Min Temperature 15 °F 16 °F -31 °F (1891)
Degree Days  
Heating Degree Days 44 38  
Month to date heating degree days 121 153  
Since 1 July heating degree days 5937 6273  
Cooling Degree Days 0 0  
Month to date cooling degree days 0 0  
Year to date cooling degree days 0 0  
Moisture  
Dew Point 14 °F    
Average Humidity 70    
Maximum Humidity 84    
Minimum Humidity 55    
Precipitation  
Precipitation 0.09 in 0.01 in 0.28 in (1918)
Month to date precipitation 0.13 0.05  
Year to date precipitation 1.65 0.66  
Snow  
Snow 1.00 in 0.20 in 5.70 in (1996)
Month to date snowfall 1.5 0.8  
Since 1 July snowfall 45.7 28.7  
Snow Depth 1.00 in    
Sea Level Pressure  
Sea Level Pressure 30.29 in    
Wind  
Wind Speed 9 mph (NNW)    
Max Wind Speed 31 mph    
Max Gust Speed 39 mph    
Visibility 7 miles    
Events Snow    
T = Trace of Precipitation, MM = Missing Value Source: NWS Daily Summary

Daily Weather History Graph

Daily Weather History Graph

Search for Another Location

Airport:

Trip Planner

Search our weather history database for the weather conditions in past years. The results will help you decide how hot, cold, wet, or windy it might be!

Date:

Astronomy

Mar. 04, 2013 Rise Set
Actual Time 6:54 AM MST 6:08 PM MST
Civil Twilight 6:22 AM MST 6:39 PM MST
Nautical Twilight 5:46 AM MST 7:15 PM MST
Astronomical Twilight 5:09 AM MST 7:52 PM MST
Moon 1:27 AM MST (3/4) 10:31 AM MST (3/4)
Length of Visible Light 12h 16m
Length of Day
11h 14m
Waning Gibbous, 51% of the Moon is Illuminated
Mar 4
Waning Gibbous
Mar 4
Last Quarter
Mar 11
New
Mar 19
First Quarter
Mar 27
Full

Hourly Weather History & Observations

Time (MST) Temp. Windchill Dew Point Humidity Pressure Visibility Wind Dir Wind Speed Gust Speed Precip Events Conditions
12:20 AM 21.2 °F 5.2 °F 17.6 °F 86% 30.00 in 1.0 mi NNW 21.9 mph 31.1 mph 0.01 in   Mist
12:31 AM 21.2 °F 6.0 °F 17.6 °F 86% 30.00 in 1.0 mi NNW 19.6 mph 27.6 mph 0.02 in   Mist
12:53 AM 21.0 °F 4.3 °F 17.1 °F 85% 30.09 in 1.0 mi North 24.2 mph 34.5 mph 0.03 in   Mist
12:58 AM 21.2 °F 4.2 °F 17.6 °F 86% 30.01 in 0.8 mi North 25.3 mph 33.4 mph N/A   Mist
1:20 AM 21.2 °F 4.2 °F 17.6 °F 86% 30.03 in 1.0 mi North 25.3 mph 33.4 mph N/A   Mist
1:53 AM 21.0 °F 5.0 °F 17.1 °F 85% 30.13 in 1.2 mi North 21.9 mph 29.9 mph 0.01 in   Overcast
2:27 AM 21.2 °F 7.8 °F 17.6 °F 86% 30.07 in 1.8 mi NNW 15.0 mph 24.2 mph 0.01 in   Overcast
2:44 AM 21.2 °F 7.3 °F 17.6 °F 86% 30.08 in 1.8 mi NNW 16.1 mph 27.6 mph 0.01 in Snow Light Snow
2:53 AM 21.0 °F 6.6 °F 17.1 °F 85% 30.17 in 1.2 mi North 17.3 mph 23.0 mph 0.01 in Snow Light Snow
3:15 AM 19.4 °F 5.5 °F 15.8 °F 86% 30.10 in 1.2 mi NNW 15.0 mph 25.3 mph 0.01 in Snow Light Snow
3:53 AM 19.9 °F 7.3 °F 15.1 °F 81% 30.22 in 1.0 mi NNW 12.7 mph 28.8 mph 0.02 in Snow Light Snow
4:21 AM 19.4 °F 7.2 °F 15.8 °F 86% 30.14 in 1.5 mi North 11.5 mph - 0.01 in Snow Light Snow
4:31 AM 19.4 °F 8.6 °F 15.8 °F 86% 30.15 in 1.2 mi NNW 9.2 mph - 0.01 in Snow Light Snow
4:37 AM 19.4 °F 7.9 °F 15.8 °F 86% 30.15 in 2.0 mi NNW 10.4 mph - 0.02 in Snow Light Snow
4:48 AM 19.4 °F 6.0 °F 12.2 °F 74% 30.16 in 5.0 mi North 13.8 mph 24.2 mph 0.02 in Snow Light Snow
4:53 AM 19.9 °F 7.3 °F 12.0 °F 71% 30.25 in 8.0 mi North 12.7 mph - 0.02 in Snow Light Snow
5:53 AM 19.9 °F 8.6 °F 12.9 °F 74% 30.29 in 10.0 mi NNW 10.4 mph - 0.00 in   Overcast
6:53 AM 19.9 °F 7.9 °F 12.0 °F 71% 30.33 in 10.0 mi NNW 11.5 mph - N/A   Overcast
7:53 AM 19.9 °F 6.7 °F 12.0 °F 71% 30.35 in 10.0 mi North 13.8 mph - N/A   Overcast
8:53 AM 19.0 °F 9.0 °F 12.0 °F 74% 30.39 in 10.0 mi NW 8.1 mph - N/A   Overcast
9:03 AM 19.4 °F 8.6 °F 12.2 °F 74% 30.28 in 10.0 mi NW 9.2 mph - N/A   Overcast
9:38 AM 19.4 °F 7.2 °F 12.2 °F 74% 30.29 in 10.0 mi North 11.5 mph - N/A   Overcast
9:53 AM 19.9 °F 7.9 °F 10.9 °F 68% 30.42 in 10.0 mi North 11.5 mph 20.7 mph 0.00 in Snow Light Snow
10:53 AM 21.0 °F 9.3 °F 10.9 °F 65% 30.44 in 10.0 mi North 11.5 mph - 0.00 in   Overcast
11:19 AM 21.2 °F 10.9 °F 10.4 °F 63% 30.32 in 10.0 mi North 9.2 mph - N/A   Overcast
11:53 AM 21.9 °F 14.5 °F 10.9 °F 63% 30.45 in 10.0 mi North 5.8 mph - N/A   Overcast
12:53 PM 25.0 °F 18.1 °F 12.0 °F 58% 30.44 in 10.0 mi North 5.8 mph - N/A   Overcast
1:53 PM 25.0 °F 15.5 °F 12.0 °F 58% 30.44 in 10.0 mi NNW 9.2 mph - N/A   Overcast
2:53 PM 25.0 °F 13.6 °F 10.9 °F 55% 30.46 in 10.0 mi NW 12.7 mph - 0.00 in   Overcast
3:53 PM 25.0 °F 17.1 °F 14.0 °F 63% 30.46 in 10.0 mi WNW 6.9 mph - 0.00 in   Overcast
4:53 PM 25.0 °F 17.1 °F 14.0 °F 63% 30.46 in 10.0 mi WNW 6.9 mph - N/A   Overcast
5:53 PM 24.1 °F - 14.0 °F 65% 30.45 in 10.0 mi Calm Calm - N/A   Overcast
6:53 PM 21.9 °F 15.7 °F 14.0 °F 72% 30.45 in 10.0 mi SSE 4.6 mph - N/A   Overcast
7:53 PM 19.0 °F 11.1 °F 12.9 °F 77% 30.47 in 10.0 mi SE 5.8 mph - N/A   Overcast
8:41 PM 15.8 °F - 10.4 °F 79% 30.35 in 10.0 mi Calm Calm - N/A   Mostly Cloudy
8:53 PM 16.0 °F - 10.0 °F 77% 30.48 in 10.0 mi Calm Calm - N/A   Overcast
9:03 PM 17.6 °F 10.7 °F 10.4 °F 73% 30.34 in 10.0 mi South 4.6 mph - N/A   Overcast
9:53 PM 19.9 °F - 14.0 °F 78% 30.46 in 10.0 mi Calm Calm - N/A   Overcast
10:53 PM 19.0 °F 12.3 °F 12.0 °F 74% 30.45 in 10.0 mi Variable 4.6 mph - N/A   Overcast